Location: Brodeslavy
(49.9527°N, 13.5567°E)
Time: 05:41:11
(UTC+00:00)

Cosmos 1862 Rocket - Pass Details

Date: 17 June 2025
Orbit: 597 x 628 km, 82.5° (Epoch: 12 July)

Event Time Altitude Azimuth Distance (km) Brightness Sun altitude
Exits shadow 21:19:28 20° 160° (SSE) 1,459 4.8 -12.9°
Maximum altitude 21:22:17 48° 94° (E) 816 4.0 -13.1°
Drops below altitude 10° 21:26:32 10° 20° (NNE) 1,991 6.8 -13.3°
Sets 21:28:48 0° 15° (NNE) 2,897 7.9 -13.5°
